timestamp,record,latitude,longitude,height,speed,course,satellites,validity,hdop,vdop,pdop,sep,ax,ay,az,gx,gy,gz,mx,my,mz,temp_imu,temp_1,temp_2,temp_3,temp_4,atm,year,month,day,hour,minute,second,rssi,ref
2021-04-08 12:59:10.000,0,41.147079,-8.667169,-15.5,0.188,-1,5,1,7.65,8.63,11.53,50.1,,,,,,,,,,,22.3,,,,,2021,4,8,12,59,10,0,3962
2021-04-08 12:59:11.000,0,41.147057,-8.667160,-14.7,0.586,-1,5,1,7.65,8.63,11.53,50.1,,,,,,,,,,,22.31,,,,,2021,4,8,12,59,11,0,3962
2021-04-08 12:59:12.000,0,41.147053,-8.667162,-14.1,0.772,-1,5,1,7.65,8.63,11.54,50.1,,,,,,,,,,,22.3,,,,,2021,4,8,12,59,12,0,3962
2021-04-08 12:59:13.000,0,41.147057,-8.667159,-13.8,0.813,-1,5,1,7.66,8.63,11.54,50.1,,,,,,,,,,,22.31,,,,,2021,4,8,12,59,13,0,3962
2021-04-08 12:59:14.000,0,41.147041,-8.667152,-13.1,0.963,-1,5,1,7.66,8.63,11.54,50.1,,,,,,,,,,,22.31,,,,,2021,4,8,12,59,14,0,3962
2021-04-08 12:59:15.000,0,41.147018,-8.667142,-11.7,1.129,-1,5,1,7.66,8.64,11.54,50.1,,,,,,,,,,,22.32,,,,,2021,4,8,12,59,15,0,3962
2021-04-08 12:59:16.000,0,41.147011,-8.667137,-10.5,0.567,-1,5,1,7.66,8.64,11.55,50.1,,,,,,,,,,,22.32,,,,,2021,4,8,12,59,16,0,3962
2021-04-08 12:59:17.000,0,41.147026,-8.667136,-9.2,0.831,-1,5,1,7.67,8.64,11.55,50.1,,,,,,,,,,,22.32,,,,,2021,4,8,12,59,17,0,3962
2021-04-08 12:59:18.000,0,41.147030,-8.667136,-9.9,0.171,-1,5,1,7.67,8.64,11.55,50.1,,,,,,,,,,,22.33,,,,,2021,4,8,12,59,18,0,3962
2021-04-08 12:59:19.000,0,41.147041,-8.667139,-10.4,0.369,-1,5,1,7.67,8.64,11.56,50.1,,,,,,,,,,,22.33,,,,,2021,4,8,12,59,19,0,3962
2021-04-08 12:59:20.000,0,41.147049,-8.667140,-11.6,0.124,-1,5,1,7.68,8.64,11.56,50.1,,,,,,,,,,,22.34,,,,,2021,4,8,12,59,20,0,3962
2021-04-08 12:59:21.000,0,41.147053,-8.667139,-12.2,0.337,-1,5,1,7.68,8.65,11.56,50.1,,,,,,,,,,,22.35,,,,,2021,4,8,12,59,21,0,3962
2021-04-08 12:59:22.000,0,41.147057,-8.667135,-13.2,0.559,-1,5,1,7.68,8.65,11.57,50.1,,,,,,,,,,,22.35,,,,,2021,4,8,12,59,22,0,3962
2021-04-08 12:59:23.000,0,41.147060,-8.667135,-13.1,0.315,-1,5,1,7.68,8.65,11.57,50.1,,,,,,,,,,,22.36,,,,,2021,4,8,12,59,23,0,3962
2021-04-08 12:59:24.000,0,41.147064,-8.667130,-13.8,0.295,-1,5,1,7.69,8.65,11.57,50.1,,,,,,,,,,,22.36,,,,,2021,4,8,12,59,24,0,3962
2021-04-08 12:59:25.000,0,41.147076,-8.667130,-14.1,0.6,-1,5,1,7.69,8.65,11.57,50.1,,,,,,,,,,,22.37,,,,,2021,4,8,12,59,25,0,3962
2021-04-08 12:59:26.000,0,41.147079,-8.667130,-14.9,0.208,-1,5,1,7.69,8.65,11.58,50.1,,,,,,,,,,,22.37,,,,,2021,4,8,12,59,26,0,3962
2021-04-08 12:59:27.000,0,41.147072,-8.667130,-14.9,0.563,-1,5,1,7.69,8.65,11.58,50.1,,,,,,,,,,,22.38,,,,,2021,4,8,12,59,27,0,3962
2021-04-08 12:59:28.000,0,41.147083,-8.667133,-15,0.438,-1,5,1,7.7,8.66,11.58,50.1,,,,,,,,,,,22.39,,,,,2021,4,8,12,59,28,0,3962
2021-04-08 12:59:29.000,0,41.147087,-8.667131,-14.8,0.571,-1,5,1,7.7,8.66,11.59,50.1,,,,,,,,,,,22.39,,,,,2021,4,8,12,59,29,0,3962
2021-04-08 12:59:30.000,0,41.147076,-8.667128,-13.7,0.457,-1,5,1,7.7,8.66,11.59,50.1,,,,,,,,,,,22.4,,,,,2021,4,8,12,59,30,0,3962
2021-04-08 12:59:31.000,0,41.147083,-8.667128,-14.2,0.152,-1,5,1,7.7,8.66,11.59,50.1,,,,,,,,,,,22.4,,,,,2021,4,8,12,59,31,0,3962
2021-04-08 12:59:32.000,0,41.147091,-8.667130,-15,0.044,-1,5,1,7.71,8.66,11.59,50.1,,,,,,,,,,,22.41,,,,,2021,4,8,12,59,32,0,3962
2021-04-08 12:59:33.000,0,41.147091,-8.667130,-14.8,0.048,-1,5,1,7.71,8.66,11.6,50.1,,,,,,,,,,,22.41,,,,,2021,4,8,12,59,33,0,3962
2021-04-08 12:59:34.000,0,41.147095,-8.667132,-14.9,0.013,-1,5,1,7.71,8.66,11.6,50.1,,,,,,,,,,,22.42,,,,,2021,4,8,12,59,34,0,3962
2021-04-08 12:59:39.000,0,41.147083,-8.667130,-12.5,0.158,-1,6,1,7.43,8.26,11.11,50.1,,,,,,,,,,,22.46,,,,,2021,4,8,12,59,39,0,3962
2021-04-08 12:59:40.000,0,41.147079,-8.667130,-12.6,0.055,-1,6,1,7.43,8.27,11.12,50.1,,,,,,,,,,,22.46,,,,,2021,4,8,12,59,40,0,3962
2021-04-08 12:59:41.000,0,41.147076,-8.667129,-12.5,0.224,-1,6,1,7.44,8.27,11.13,50.1,,,,,,,,,,,22.47,,,,,2021,4,8,12,59,41,0,3962
2021-04-08 12:59:42.000,0,41.147079,-8.667129,-12.3,0.026,-1,6,1,7.44,8.28,11.13,50.1,,,,,,,,,,,22.47,,,,,2021,4,8,12,59,42,0,3962
2021-04-08 12:59:43.000,0,41.147079,-8.667129,-12.3,0.141,-1,6,1,7.45,8.28,11.14,50.1,,,,,,,,,,,22.47,,,,,2021,4,8,12,59,43,0,3962
2021-04-08 12:59:44.000,0,41.147079,-8.667129,-12.3,0.093,-1,6,1,7.45,8.29,11.15,50.1,,,,,,,,,,,22.48,,,,,2021,4,8,12,59,44,0,3962
2021-04-08 12:59:45.000,0,41.147072,-8.667126,-12.5,0.328,-1,6,1,7.46,8.29,11.15,50.1,,,,,,,,,,,22.5,,,,,2021,4,8,12,59,45,0,3962
2021-04-08 12:59:46.000,0,41.147068,-8.667123,-12.6,0.511,-1,6,1,7.46,8.3,11.16,50.1,,,,,,,,,,,22.51,,,,,2021,4,8,12,59,46,0,3962
2021-04-08 12:59:47.000,0,41.147068,-8.667122,-12.7,0.286,-1,6,1,7.47,8.3,11.17,50.1,,,,,,,,,,,22.51,,,,,2021,4,8,12,59,47,0,3962
2021-04-08 12:59:48.000,0,41.147064,-8.667122,-12.8,0.422,-1,6,1,7.47,8.31,11.17,50.1,,,,,,,,,,,22.52,,,,,2021,4,8,12,59,48,0,3962
2021-04-08 12:59:49.000,0,41.147072,-8.667123,-13,0.139,-1,6,1,7.48,8.31,11.18,50.1,,,,,,,,,,,22.53,,,,,2021,4,8,12,59,49,0,3962
2021-04-08 12:59:50.000,0,41.147076,-8.667125,-13.4,0.049,-1,6,1,7.48,8.31,11.19,50.1,,,,,,,,,,,22.52,,,,,2021,4,8,12,59,50,0,3962
2021-04-08 12:59:51.000,0,41.147076,-8.667127,-13.6,0.215,-1,6,1,7.49,8.32,11.19,50.1,,,,,,,,,,,22.53,,,,,2021,4,8,12,59,51,0,3962
2021-04-08 12:59:52.000,0,41.147072,-8.667127,-13.6,0.348,-1,6,1,7.49,8.32,11.2,50.1,,,,,,,,,,,22.52,,,,,2021,4,8,12,59,52,0,3962
2021-04-08 12:59:53.000,0,41.147072,-8.667128,-13.6,0.358,-1,6,1,7.5,8.33,11.21,50.1,,,,,,,,,,,22.54,,,,,2021,4,8,12,59,53,0,3962
2021-04-08 12:59:54.000,0,41.147068,-8.667130,-13.8,0.444,-1,6,1,7.5,8.33,11.21,50.1,,,,,,,,,,,22.54,,,,,2021,4,8,12,59,54,0,3962
2021-04-08 12:59:55.000,0,41.147072,-8.667133,-13.9,0.158,-1,6,1,7.51,8.34,11.22,50.1,,,,,,,,,,,22.54,,,,,2021,4,8,12,59,55,0,3962
2021-04-08 12:59:56.000,0,41.147072,-8.667133,-13.9,0.181,-1,6,1,7.51,8.34,11.22,50.1,,,,,,,,,,,22.56,,,,,2021,4,8,12,59,56,0,3962
2021-04-08 12:59:57.000,0,41.147072,-8.667131,-13.9,0.2,-1,6,1,7.52,8.34,11.23,50.1,,,,,,,,,,,22.57,,,,,2021,4,8,12,59,57,0,3962
2021-04-08 12:59:58.000,0,41.147068,-8.667132,-13.9,0.243,-1,6,1,7.52,8.35,11.24,50.1,,,,,,,,,,,22.59,,,,,2021,4,8,12,59,58,0,3962
2021-04-08 12:59:59.000,0,41.147064,-8.667131,-13.8,0.289,-1,6,1,7.53,8.35,11.24,50.1,,,,,,,,,,,22.61,,,,,2021,4,8,12,59,59,0,3962
2021-04-08 13:00:00.000,0,41.147064,-8.667130,-13.9,0.216,-1,6,1,7.53,8.36,11.25,50.1,,,,,,,,,,,22.62,,,,,2021,4,8,13,0,0,0,3962
2021-04-08 13:00:01.000,0,41.147068,-8.667130,-14,0.107,-1,6,1,7.54,8.36,11.26,50.1,,,,,,,,,,,22.61,,,,,2021,4,8,13,0,1,0,3962
2021-04-08 13:00:02.000,0,41.147064,-8.667130,-14,0.14,-1,6,1,7.54,8.36,11.26,50.1,,,,,,,,,,,22.61,,,,,2021,4,8,13,0,2,0,3962
2021-04-08 13:00:03.000,0,41.147072,-8.667131,-14.1,0.078,-1,6,1,7.55,8.37,11.27,50.1,,,,,,,,,,,22.61,,,,,2021,4,8,13,0,3,0,3962
2021-04-08 13:00:04.000,0,41.147072,-8.667130,-14.2,0.154,-1,6,1,7.55,8.37,11.27,50.1,,,,,,,,,,,22.63,,,,,2021,4,8,13,0,4,0,3962
2021-04-08 13:00:05.000,0,41.147076,-8.667130,-14,0.243,-1,6,1,7.55,8.38,11.28,50.1,,,,,,,,,,,22.63,,,,,2021,4,8,13,0,5,0,3962
2021-04-08 13:00:06.000,0,41.147079,-8.667127,-13.9,0.351,-1,6,1,7.56,8.38,11.28,50.1,,,,,,,,,,,22.64,,,,,2021,4,8,13,0,6,0,3962
2021-04-08 13:00:07.000,0,41.147072,-8.667131,-13.7,0.106,-1,6,1,7.56,8.38,11.29,50.1,,,,,,,,,,,22.64,,,,,2021,4,8,13,0,7,0,3962
2021-04-08 13:00:08.000,0,41.147068,-8.667134,-13.6,0.22,-1,6,1,7.57,8.39,11.3,50.1,,,,,,,,,,,22.64,,,,,2021,4,8,13,0,8,0,3962
2021-04-08 13:00:09.000,0,41.147072,-8.667134,-13.5,0.106,-1,6,1,7.57,8.39,11.3,50.1,,,,,,,,,,,22.63,,,,,2021,4,8,13,0,9,0,3962
2021-04-08 13:00:10.000,0,41.147068,-8.667128,-13.5,0.225,-1,6,1,7.58,8.39,11.31,50.1,,,,,,,,,,,22.65,,,,,2021,4,8,13,0,10,0,3962
2021-04-08 13:00:11.000,0,41.147068,-8.667122,-13.5,0.351,-1,6,1,7.58,8.4,11.31,50.1,,,,,,,,,,,22.66,,,,,2021,4,8,13,0,11,0,3962
2021-04-08 13:00:12.000,0,41.147068,-8.667124,-13.4,0.2,-1,6,1,7.58,8.4,11.32,50.1,,,,,,,,,,,22.67,,,,,2021,4,8,13,0,12,0,3962
2021-04-08 13:00:13.000,0,41.147072,-8.667128,-13.3,0.038,-1,6,1,7.59,8.4,11.32,50.1,,,,,,,,,,,22.67,,,,,2021,4,8,13,0,13,0,3962
2021-04-08 13:00:14.000,0,41.147079,-8.667130,-13.2,0.173,-1,6,1,7.59,8.41,11.33,50.1,,,,,,,,,,,22.67,,,,,2021,4,8,13,0,14,0,3962
2021-04-08 13:00:15.000,0,41.147079,-8.667133,-13.1,0.209,-1,6,1,7.6,8.41,11.33,50.1,,,,,,,,,,,22.68,,,,,2021,4,8,13,0,15,0,3962
2021-04-08 13:00:16.000,0,41.147083,-8.667139,-12.9,0.345,-1,6,1,7.6,8.41,11.34,50.1,,,,,,,,,,,22.68,,,,,2021,4,8,13,0,16,0,3962
2021-04-08 13:00:17.000,0,41.147087,-8.667143,-12.8,0.378,-1,6,1,7.6,8.42,11.34,50.1,,,,,,,,,,,22.69,,,,,2021,4,8,13,0,17,0,3962
2021-04-08 13:00:18.000,0,41.147087,-8.667138,-12.7,0.246,-1,6,1,7.61,8.42,11.35,50.1,,,,,,,,,,,22.69,,,,,2021,4,8,13,0,18,0,3962
2021-04-08 13:00:19.000,0,41.147095,-8.667148,-12.5,0.514,-1,6,1,7.61,8.42,11.35,50.1,,,,,,,,,,,22.7,,,,,2021,4,8,13,0,19,0,3962
2021-04-08 13:00:20.000,0,41.147099,-8.667148,-12.3,0.557,-1,6,1,7.62,8.43,11.36,50.1,,,,,,,,,,,22.71,,,,,2021,4,8,13,0,20,0,3962
2021-04-08 13:00:21.000,0,41.147102,-8.667158,-12.2,0.627,-1,6,1,7.62,8.43,11.36,50.1,,,,,,,,,,,22.72,,,,,2021,4,8,13,0,21,0,3962
2021-04-08 13:00:22.000,0,41.147091,-8.667159,-12,0.523,-1,6,1,7.62,8.43,11.37,50.1,,,,,,,,,,,22.72,,,,,2021,4,8,13,0,22,0,3962
2021-04-08 13:00:23.000,0,41.147091,-8.667154,-11.8,0.268,-1,6,1,7.63,8.44,11.37,50.1,,,,,,,,,,,22.73,,,,,2021,4,8,13,0,23,0,3962
2021-04-08 13:00:24.000,0,41.147087,-8.667148,-11.6,0.051,-1,6,1,7.63,8.44,11.38,50.1,,,,,,,,,,,22.73,,,,,2021,4,8,13,0,24,0,3962
2021-04-08 13:00:25.000,0,41.147087,-8.667151,-11.5,0.16,-1,6,1,7.64,8.44,11.38,50.1,,,,,,,,,,,22.74,,,,,2021,4,8,13,0,25,0,3962
2021-04-08 13:00:26.000,0,41.147083,-8.667146,-11.4,0.016,-1,6,1,7.64,8.45,11.39,50.1,,,,,,,,,,,22.73,,,,,2021,4,8,13,0,26,0,3962
2021-04-08 13:00:27.000,0,41.147083,-8.667143,-11.4,0.067,-1,6,1,7.64,8.45,11.39,50.1,,,,,,,,,,,22.75,,,,,2021,4,8,13,0,27,0,3962
2021-04-08 13:00:28.000,0,41.147091,-8.667162,-11.4,0.423,-1,6,1,7.65,8.45,11.4,50.1,,,,,,,,,,,22.76,,,,,2021,4,8,13,0,28,0,3962
2021-04-08 13:00:29.000,0,41.147087,-8.667155,-11.3,0.16,-1,6,1,7.65,8.46,11.4,50.1,,,,,,,,,,,22.77,,,,,2021,4,8,13,0,29,0,3962
2021-04-08 13:00:30.000,0,41.147087,-8.667152,-11.4,0.099,-1,6,1,7.65,8.46,11.41,50.1,,,,,,,,,,,22.78,,,,,2021,4,8,13,0,30,0,3962
2021-04-08 13:00:31.000,0,41.147087,-8.667143,-11.4,0.182,-1,6,1,7.66,8.46,11.41,50.1,,,,,,,,,,,22.78,,,,,2021,4,8,13,0,31,0,3962
2021-04-08 13:00:32.000,0,41.147087,-8.667142,-11.4,0.18,-1,6,1,7.66,8.46,11.42,50.1,,,,,,,,,,,22.79,,,,,2021,4,8,13,0,32,0,3962
2021-04-08 13:00:33.000,0,41.147095,-8.667147,-11.4,0.282,-1,6,1,7.66,8.47,11.42,50.1,,,,,,,,,,,22.8,,,,,2021,4,8,13,0,33,0,3962
2021-04-08 13:00:34.000,0,41.147095,-8.667146,-11.4,0.243,-1,6,1,7.67,8.47,11.42,50.1,,,,,,,,,,,22.79,,,,,2021,4,8,13,0,34,0,3962
2021-04-08 13:00:35.000,0,41.147091,-8.667140,-11.2,0.158,-1,6,1,7.67,8.47,11.43,50.1,,,,,,,,,,,22.8,,,,,2021,4,8,13,0,35,0,3962
2021-04-08 13:00:36.000,0,41.147099,-8.667142,-11.1,0.269,-1,6,1,7.67,8.47,11.43,50.1,,,,,,,,,,,22.8,,,,,2021,4,8,13,0,36,0,3962
2021-04-08 13:00:37.000,0,41.147099,-8.667143,-11.1,0.169,-1,6,1,7.68,8.48,11.44,50.1,,,,,,,,,,,22.8,,,,,2021,4,8,13,0,37,0,3962
2021-04-08 13:00:38.000,0,41.147099,-8.667141,-10.8,0.234,-1,6,1,7.68,8.48,11.44,50.1,,,,,,,,,,,22.81,,,,,2021,4,8,13,0,38,0,3962
2021-04-08 13:00:39.000,0,41.147072,-8.667132,-8.4,0.259,-1,7,1,2.26,2.64,3.48,50.1,,,,,,,,,,,22.82,,,,,2021,4,8,13,0,39,0,3962
2021-04-08 13:00:40.000,0,41.147053,-8.667125,-6.5,0.167,-1,7,1,2.26,2.64,3.48,50.1,,,,,,,,,,,22.83,,,,,2021,4,8,13,0,40,0,3962
2021-04-08 13:00:41.000,0,41.147041,-8.667122,-5.4,0.268,-1,7,1,2.26,2.64,3.48,50.1,,,,,,,,,,,22.84,,,,,2021,4,8,13,0,41,0,3962
2021-04-08 13:00:42.000,0,41.147034,-8.667125,-4.6,0.266,-1,7,1,2.26,2.64,3.48,50.1,,,,,,,,,,,22.85,,,,,2021,4,8,13,0,42,0,3962
2021-04-08 13:00:43.000,0,41.147030,-8.667125,-3.9,0.174,-1,7,1,2.26,2.64,3.47,50.1,,,,,,,,,,,22.87,,,,,2021,4,8,13,0,43,0,3962
2021-04-08 13:00:44.000,0,41.147022,-8.667124,-3,0.091,-1,7,1,2.26,2.64,3.47,50.1,,,,,,,,,,,22.89,,,,,2021,4,8,13,0,44,0,3962
2021-04-08 13:00:45.000,0,41.147015,-8.667121,-2.2,0.035,-1,7,1,2.26,2.63,3.47,50.1,,,,,,,,,,,22.88,,,,,2021,4,8,13,0,45,0,3962
2021-04-08 13:00:46.000,0,41.147007,-8.667121,-1.1,0.066,-1,7,1,2.26,2.63,3.47,50.1,,,,,,,,,,,22.88,,,,,2021,4,8,13,0,46,0,3962
2021-04-08 13:00:47.000,0,41.147003,-8.667120,-0.4,0.112,-1,7,1,2.26,2.63,3.47,50.1,,,,,,,,,,,22.87,,,,,2021,4,8,13,0,47,0,3962
2021-04-08 13:00:48.000,0,41.146996,-8.667123,0.5,0.307,-1,7,1,2.27,2.63,3.47,50.1,,,,,,,,,,,22.88,,,,,2021,4,8,13,0,48,0,3962
2021-04-08 13:00:49.000,0,41.146988,-8.667119,1.7,0.217,-1,7,1,2.27,2.63,3.47,50.1,,,,,,,,,,,22.89,,,,,2021,4,8,13,0,49,0,3962
2021-04-08 13:00:50.000,0,41.146980,-8.667118,2.5,0.211,-1,7,1,2.27,2.63,3.47,50.1,,,,,,,,,,,22.91,,,,,2021,4,8,13,0,50,0,3962
2021-04-08 13:00:51.000,0,41.146973,-8.667115,3.2,0.091,-1,7,1,2.27,2.63,3.47,50.1,,,,,,,,,,,22.9,,,,,2021,4,8,13,0,51,0,3962
2021-04-08 13:00:52.000,0,41.146965,-8.667112,3.9,0.03,-1,7,1,2.27,2.63,3.47,50.1,,,,,,,,,,,22.91,,,,,2021,4,8,13,0,52,0,3962
2021-04-08 13:00:53.000,0,41.146965,-8.667108,4.2,0.211,-1,7,1,2.27,2.63,3.47,50.1,,,,,,,,,,,22.92,,,,,2021,4,8,13,0,53,0,3962
2021-04-08 13:00:54.000,0,41.146954,-8.667099,5,0.345,-1,7,1,2.27,2.63,3.47,50.1,,,,,,,,,,,22.92,,,,,2021,4,8,13,0,54,0,3962
2021-04-08 13:00:55.000,0,41.146946,-8.667099,6.3,0.165,-1,7,1,2.27,2.63,3.47,50.1,,,,,,,,,,,22.92,,,,,2021,4,8,13,0,55,0,3962
2021-04-08 13:00:56.000,0,41.146942,-8.667097,6.9,0.067,-1,6,1,3.02,6.71,7.36,50.1,,,,,,,,,,,22.92,,,,,2021,4,8,13,0,56,0,3962
2021-04-08 13:00:57.000,0,41.146938,-8.667097,7.4,0.031,-1,6,1,3.02,6.71,7.36,50.1,,,,,,,,,,,22.92,,,,,2021,4,8,13,0,57,0,3962
2021-04-08 13:00:58.000,0,41.146938,-8.667106,7.6,0.37,-1,6,1,3.02,6.71,7.36,50.1,,,,,,,,,,,22.93,,,,,2021,4,8,13,0,58,0,3962
2021-04-08 13:00:59.000,0,41.146938,-8.667110,7.8,0.376,-1,7,1,2.27,2.63,3.47,50.1,,,,,,,,,,,22.93,,,,,2021,4,8,13,0,59,0,3962
2021-04-08 13:01:00.000,0,41.146938,-8.667113,8,0.333,-1,7,1,2.27,2.63,3.47,50.1,,,,,,,,,,,22.94,,,,,2021,4,8,13,1,0,0,3962
2021-04-08 13:01:01.000,0,41.146938,-8.667113,7.8,0.266,-1,6,1,3.02,6.71,7.36,50.1,,,,,,,,,,,22.94,,,,,2021,4,8,13,1,1,0,3962
2021-04-08 13:01:02.000,0,41.146935,-8.667106,7.6,0.082,-1,6,1,3.03,6.72,7.37,50.1,,,,,,,,,,,22.94,,,,,2021,4,8,13,1,2,0,3962
2021-04-08 13:01:03.000,0,41.146938,-8.667114,7.5,0.252,-1,6,1,3.03,6.72,7.37,50.1,,,,,,,,,,,22.94,,,,,2021,4,8,13,1,3,0,3962
2021-04-08 13:01:04.000,0,41.146935,-8.667115,7.6,0.237,-1,6,1,3.03,6.72,7.37,50.1,,,,,,,,,,,22.94,,,,,2021,4,8,13,1,4,0,3962
2021-04-08 13:01:05.000,0,41.146935,-8.667115,7.7,0.119,-1,6,1,3.03,6.72,7.37,50.1,,,,,,,,,,,22.94,,,,,2021,4,8,13,1,5,0,3962
2021-04-08 13:01:06.000,0,41.146935,-8.667112,7.4,0.057,-1,6,1,3.03,6.72,7.37,50.1,,,,,,,,,,,22.93,,,,,2021,4,8,13,1,6,0,3962
2021-04-08 13:01:07.000,0,41.146931,-8.667112,7.6,0.029,-1,6,1,3.03,6.72,7.37,50.1,,,,,,,,,,,22.94,,,,,2021,4,8,13,1,7,0,3962
2021-04-08 13:01:08.000,0,41.146927,-8.667110,7.8,0.213,-1,7,1,2.27,2.62,3.47,50.1,,,,,,,,,,,22.94,,,,,2021,4,8,13,1,8,0,3962
2021-04-08 13:01:09.000,0,41.146923,-8.667108,8.1,0.061,-1,7,1,2.27,2.62,3.47,50.1,,,,,,,,,,,22.93,,,,,2021,4,8,13,1,9,0,3962
2021-04-08 13:01:10.000,0,41.146923,-8.667104,8.2,0.066,-1,7,1,2.27,2.62,3.47,50.1,,,,,,,,,,,22.92,,,,,2021,4,8,13,1,10,0,3962
2021-04-08 13:01:11.000,0,41.146927,-8.667116,8.2,0.225,-1,6,1,2.3,2.63,3.49,50.1,,,,,,,,,,,22.93,,,,,2021,4,8,13,1,11,0,3962
2021-04-08 13:02:37.000,0,41.146736,-8.667087,56,1.054,120.3,6,1,2.59,3.15,4.07,50.1,,,,,,,,,,,22.95,,,,,2021,4,8,13,2,37,0,3961
2021-04-08 13:02:38.000,0,41.146790,-8.667089,47,0.727,120.3,6,1,2.59,3.14,4.07,50.1,,,,,,,,,,,22.95,,,,,2021,4,8,13,2,38,0,3961
2021-04-08 13:02:39.000,0,41.146976,-8.667121,4.2,0.252,120.3,8,1,1.3,1.29,1.84,50.1,,,,,,,,,,,22.95,,,,,2021,4,8,13,2,39,0,3961
2021-04-08 13:02:40.000,0,41.146988,-8.667133,3.6,0.291,120.3,7,1,1.58,2.07,2.61,50.1,,,,,,,,,,,22.96,,,,,2021,4,8,13,2,40,0,3961
2021-04-08 13:02:41.000,0,41.146984,-8.667143,3.8,0.335,120.3,8,1,1.3,1.29,1.84,50.1,,,,,,,,,,,22.95,,,,,2021,4,8,13,2,41,0,3961
2021-04-08 13:02:42.000,0,41.146980,-8.667152,2.7,0.675,120.3,8,1,1.3,1.29,1.84,50.1,,,,,,,,,,,22.94,,,,,2021,4,8,13,2,42,0,3961
2021-04-08 13:02:43.000,0,41.146984,-8.667157,0.7,0.253,120.3,8,1,1.3,1.29,1.84,50.1,,,,,,,,,,,22.94,,,,,2021,4,8,13,2,43,0,3961
2021-04-08 13:02:44.000,0,41.146984,-8.667162,0,0.157,120.3,8,1,1.3,1.29,1.84,50.1,,,,,,,,,,,22.95,,,,,2021,4,8,13,2,44,0,3961
2021-04-08 13:02:45.000,0,41.146984,-8.667165,-0.2,0.167,120.3,8,1,1.3,1.29,1.84,50.1,,,,,,,,,,,22.95,,,,,2021,4,8,13,2,45,0,3961
2021-04-08 13:02:46.000,0,41.146984,-8.667165,-0.5,0.042,120.3,8,1,1.3,1.29,1.83,50.1,,,,,,,,,,,22.95,,,,,2021,4,8,13,2,46,0,3961
2021-04-08 13:02:47.000,0,41.146988,-8.667163,-0.7,0.042,120.3,8,1,1.3,1.29,1.83,50.1,,,,,,,,,,,22.95,,,,,2021,4,8,13,2,47,0,3961
2021-04-08 13:02:48.000,0,41.146988,-8.667162,-1,0.284,120.3,7,1,1.58,2.08,2.61,50.1,,,,,,,,,,,22.95,,,,,2021,4,8,13,2,48,0,3961
2021-04-08 13:02:49.000,0,41.146988,-8.667163,-0.9,0.141,120.3,8,1,1.44,2.04,2.5,50.1,,,,,,,,,,,22.95,,,,,2021,4,8,13,2,49,0,3961
2021-04-08 13:02:50.000,0,41.146988,-8.667162,-1.3,0.215,120.3,8,1,1.44,2.04,2.5,50.1,,,,,,,,,,,22.95,,,,,2021,4,8,13,2,50,0,3961
2021-04-08 13:02:51.000,0,41.146992,-8.667166,-1.5,0.107,120.3,8,1,1.44,2.04,2.5,50.1,,,,,,,,,,,22.94,,,,,2021,4,8,13,2,51,0,3961
2021-04-08 13:02:52.000,0,41.146992,-8.667168,-1.5,0.117,120.3,8,1,1.44,2.04,2.5,50.1,,,,,,,,,,,22.95,,,,,2021,4,8,13,2,52,0,3961
2021-04-08 13:02:53.000,0,41.146996,-8.667171,-1.4,0.137,120.3,8,1,1.44,2.04,2.5,50.1,,,,,,,,,,,22.95,,,,,2021,4,8,13,2,53,0,3961
2021-04-08 13:02:54.000,0,41.146996,-8.667171,-1.6,0.105,120.3,8,1,1.44,2.04,2.5,50.1,,,,,,,,,,,22.95,,,,,2021,4,8,13,2,54,0,3961
2021-04-08 13:02:55.000,0,41.146988,-8.667173,-2.4,0.273,120.3,8,1,1.44,2.04,2.5,50.1,,,,,,,,,,,22.96,,,,,2021,4,8,13,2,55,0,3961
2021-04-08 13:02:56.000,0,41.146980,-8.667177,-3.2,0.42,120.3,8,1,1.44,2.04,2.5,50.1,,,,,,,,,,,22.97,,,,,2021,4,8,13,2,56,0,3961
2021-04-08 13:02:57.000,0,41.146976,-8.667179,-3.8,0.415,120.3,8,1,1.44,2.05,2.5,50.1,,,,,,,,,,,22.97,,,,,2021,4,8,13,2,57,0,3961
2021-04-08 13:02:58.000,0,41.146973,-8.667179,-4.4,0.328,120.3,8,1,1.44,2.05,2.5,50.1,,,,,,,,,,,22.97,,,,,2021,4,8,13,2,58,0,3961
2021-04-08 13:02:59.000,0,41.146969,-8.667183,-4.8,0.416,120.3,8,1,1.45,2.05,2.5,50.1,,,,,,,,,,,22.97,,,,,2021,4,8,13,2,59,0,3961
2021-04-08 13:03:00.000,0,41.146973,-8.667190,-4.4,0.437,120.3,8,1,1.45,2.05,2.5,50.1,,,,,,,,,,,22.97,,,,,2021,4,8,13,3,0,0,3961
2021-04-08 13:03:01.000,0,41.146969,-8.667189,-4.6,0.386,120.3,8,1,1.45,2.05,2.5,50.1,,,,,,,,,,,22.97,,,,,2021,4,8,13,3,1,0,3961
2021-04-08 13:03:02.000,0,41.146969,-8.667186,-4.8,0.322,120.3,8,1,1.45,2.05,2.5,50.1,,,,,,,,,,,22.97,,,,,2021,4,8,13,3,2,0,3961
2021-04-08 13:03:03.000,0,41.146969,-8.667187,-5.1,0.298,120.3,8,1,1.45,2.05,2.51,50.1,,,,,,,,,,,22.98,,,,,2021,4,8,13,3,3,0,3961
2021-04-08 13:03:04.000,0,41.146965,-8.667189,-5.3,0.273,120.3,8,1,1.45,2.05,2.51,50.1,,,,,,,,,,,22.97,,,,,2021,4,8,13,3,4,0,3961
2021-04-08 13:03:05.000,0,41.146969,-8.667189,-5.1,0.212,120.3,8,1,1.45,2.05,2.51,50.1,,,,,,,,,,,22.98,,,,,2021,4,8,13,3,5,0,3961
2021-04-08 13:03:06.000,0,41.146973,-8.667188,-4.7,0.197,120.3,8,1,1.45,2.05,2.51,50.1,,,,,,,,,,,22.98,,,,,2021,4,8,13,3,6,0,3961
2021-04-08 13:03:07.000,0,41.146973,-8.667189,-4.7,0.188,120.3,8,1,1.45,2.05,2.51,50.1,,,,,,,,,,,22.99,,,,,2021,4,8,13,3,7,0,3961
2021-04-08 13:03:08.000,0,41.146980,-8.667187,-4.1,0.073,120.3,8,1,1.45,2.05,2.51,50.1,,,,,,,,,,,22.97,,,,,2021,4,8,13,3,8,0,3961
2021-04-08 13:03:09.000,0,41.146976,-8.667186,-4.3,0.074,120.3,8,1,1.45,2.05,2.51,50.1,,,,,,,,,,,22.97,,,,,2021,4,8,13,3,9,0,3961
2021-04-08 13:03:10.000,0,41.146973,-8.667191,-4.8,0.324,120.3,8,1,1.45,2.05,2.51,50.1,,,,,,,,,,,22.96,,,,,2021,4,8,13,3,10,0,3961
2021-04-08 13:03:11.000,0,41.146969,-8.667192,-5.1,0.339,120.3,8,1,1.45,2.05,2.51,50.1,,,,,,,,,,,22.97,,,,,2021,4,8,13,3,11,0,3961
2021-04-08 13:03:12.000,0,41.146973,-8.667201,-4.8,0.419,120.3,7,1,1.59,2.08,2.62,50.1,,,,,,,,,,,22.97,,,,,2021,4,8,13,3,12,0,3961
2021-04-08 13:03:13.000,0,41.146973,-8.667206,-5,0.396,120.3,7,1,1.59,2.08,2.62,50.1,,,,,,,,,,,22.98,,,,,2021,4,8,13,3,13,0,3961
2021-04-08 13:03:14.000,0,41.146973,-8.667217,-5.3,0.587,120.3,7,1,1.59,2.08,2.62,50.1,,,,,,,,,,,22.96,,,,,2021,4,8,13,3,14,0,3961
2021-04-08 13:03:15.000,0,41.146973,-8.667219,-5.3,0.528,120.3,7,1,1.59,2.08,2.62,50.1,,,,,,,,,,,22.96,,,,,2021,4,8,13,3,15,0,3961
2021-04-08 13:03:16.000,0,41.146976,-8.667213,-5.8,0.206,120.3,7,1,1.59,2.08,2.62,50.1,,,,,,,,,,,22.96,,,,,2021,4,8,13,3,16,0,3961
2021-04-08 13:03:17.000,0,41.146976,-8.667228,-5.8,0.538,120.3,8,1,1.45,2.05,2.51,50.1,,,,,,,,,,,22.96,,,,,2021,4,8,13,3,17,0,3961
2021-04-08 13:03:18.000,0,41.146984,-8.667241,-5.9,0.759,120.3,8,1,1.45,2.05,2.51,50.1,,,,,,,,,,,22.94,,,,,2021,4,8,13,3,18,0,3961
2021-04-08 13:03:19.000,0,41.146976,-8.667236,-6.1,0.548,120.3,8,1,1.45,2.05,2.51,50.1,,,,,,,,,,,22.94,,,,,2021,4,8,13,3,19,0,3961
2021-04-08 13:03:20.000,0,41.146980,-8.667216,-5.1,0.17,120.3,8,1,1.45,2.05,2.51,50.1,,,,,,,,,,,22.94,,,,,2021,4,8,13,3,20,0,3961
2021-04-08 13:03:21.000,0,41.146969,-8.667218,-5.4,0.629,120.3,8,1,1.45,2.05,2.51,50.1,,,,,,,,,,,22.94,,,,,2021,4,8,13,3,21,0,3961
2021-04-08 13:03:22.000,0,41.146954,-8.667220,-6.5,0.716,120.3,9,1,1.13,1.27,1.7,50.1,,,,,,,,,,,22.96,,,,,2021,4,8,13,3,22,0,3961
2021-04-08 13:03:23.000,0,41.146954,-8.667220,-5.9,0.622,120.3,9,1,1.13,1.27,1.7,50.1,,,,,,,,,,,22.97,,,,,2021,4,8,13,3,23,0,3961
2021-04-08 13:03:24.000,0,41.146954,-8.667208,-5.8,0.491,120.3,9,1,1.13,1.27,1.7,50.1,,,,,,,,,,,22.99,,,,,2021,4,8,13,3,24,0,3961
2021-04-08 13:03:25.000,0,41.146965,-8.667213,-4.8,0.252,120.3,9,1,1.13,1.27,1.7,50.1,,,,,,,,,,,23.02,,,,,2021,4,8,13,3,25,0,3961
2021-04-08 13:03:26.000,0,41.146969,-8.667218,-4.5,0.318,120.3,9,1,1.13,1.27,1.7,50.1,,,,,,,,,,,23.06,,,,,2021,4,8,13,3,26,0,3961
2021-04-08 13:03:27.000,0,41.146969,-8.667219,-4.3,0.28,120.3,8,1,1.59,1.27,2.03,50.1,,,,,,,,,,,23.1,,,,,2021,4,8,13,3,27,0,3961
2021-04-08 13:03:28.000,0,41.146969,-8.667223,-4,0.345,120.3,8,1,1.59,1.27,2.03,50.1,,,,,,,,,,,23.14,,,,,2021,4,8,13,3,28,0,3961
2021-04-08 13:03:29.000,0,41.146976,-8.667218,-3.4,0.194,120.3,9,1,1.13,1.27,1.7,50.1,,,,,,,,,,,23.17,,,,,2021,4,8,13,3,29,0,3961
2021-04-08 13:03:30.000,0,41.146976,-8.667217,-3.2,0.153,120.3,8,1,1.2,1.29,1.76,50.1,,,,,,,,,,,23.23,,,,,2021,4,8,13,3,30,0,3961
2021-04-08 13:03:31.000,0,41.146984,-8.667214,-2.8,0.158,120.3,9,1,1.13,1.27,1.7,50.1,,,,,,,,,,,23.28,,,,,2021,4,8,13,3,31,0,3961
2021-04-08 13:03:32.000,0,41.146988,-8.667216,-2.4,0.108,120.3,9,1,1.13,1.26,1.7,50.1,,,,,,,,,,,23.34,,,,,2021,4,8,13,3,32,0,3961
2021-04-08 13:03:33.000,0,41.146984,-8.667212,-2.4,0.261,120.3,9,1,1.13,1.26,1.7,50.1,,,,,,,,,,,23.39,,,,,2021,4,8,13,3,33,0,3961
2021-04-08 13:03:34.000,0,41.146976,-8.667213,-3,0.443,120.3,9,1,1.13,1.26,1.7,50.1,,,,,,,,,,,23.44,,,,,2021,4,8,13,3,34,0,3961
2021-04-08 13:03:35.000,0,41.146973,-8.667212,-3.2,0.421,120.3,8,1,1.59,1.26,2.03,50.1,,,,,,,,,,,23.5,,,,,2021,4,8,13,3,35,0,3961
2021-04-08 13:03:36.000,0,41.146969,-8.667210,-3.5,0.292,120.3,9,1,1.13,1.26,1.69,50.1,,,,,,,,,,,23.55,,,,,2021,4,8,13,3,36,0,3961
2021-04-08 13:03:37.000,0,41.146965,-8.667204,-4.1,0.172,120.3,9,1,1.13,1.26,1.69,50.1,,,,,,,,,,,23.6,,,,,2021,4,8,13,3,37,0,3961
2021-04-08 13:03:38.000,0,41.146965,-8.667207,-4,0.109,120.3,9,1,1.13,1.26,1.69,50.1,,,,,,,,,,,23.65,,,,,2021,4,8,13,3,38,0,3961
2021-04-08 13:03:39.000,0,41.146969,-8.667210,-3.6,0.128,120.3,9,1,1.13,1.26,1.69,50.1,,,,,,,,,,,23.69,,,,,2021,4,8,13,3,39,0,3961
2021-04-08 13:03:40.000,0,41.146969,-8.667212,-3.8,0.181,120.3,9,1,1.13,1.26,1.69,50.1,,,,,,,,,,,23.7,,,,,2021,4,8,13,3,40,0,3961